Location: Unspecified
(38.5180°N, 0.0000°E)
Time: 12:18:13
(UTC+00:00)

Envisat - Visible Passes

Search period start: 04 April 2026 00:00
Search period end: 14 April 2026 00:00
Orbit: 761 x 763 km, 98.4° (Epoch: 29 March)

Date Brightness Start Highest point End Pass type
(mag) Time Alt. Az. Time Alt. Az. Time Alt. Az.
4 Apr 5.4 01:45:27 10° NE 01:47:12 18° NE 01:47:12 18° NE visible
4 Apr 4.1 03:24:01 10° N 03:27:20 30° NW 03:27:20 30° NW visible
5 Apr 3.9 02:45:51 10° N 02:49:12 42° N 02:49:12 42° N visible
6 Apr 4.7 02:08:16 10° NNE 02:11:04 29° NE 02:11:04 29° NE visible
6 Apr 4.5 03:47:56 10° NNW 03:51:12 21° WNW 03:51:12 21° WNW visible
7 Apr 5.6 01:31:33 10° NE 01:32:55 15° ENE 01:32:55 15° ENE visible
7 Apr 3.7 03:09:20 10° N 03:13:03 40° NW 03:13:03 40° NW visible
8 Apr 3.9 02:31:22 10° NNE 02:34:54 45° NNE 02:34:54 45° NNE visible
8 Apr 4.9 04:12:29 10° NW 04:14:42 13° WNW 04:15:02 13° WNW visible
9 Apr 4.9 01:54:03 10° NE 01:56:46 25° ENE 01:56:46 25° ENE visible
9 Apr 4.1 03:33:02 10° N 03:36:54 28° WNW 03:36:54 28° WNW visible
10 Apr 5.8 01:18:05 10° ENE 01:18:37 11° ENE 01:18:37 11° ENE visible
10 Apr 3.4 02:54:43 10° N 02:58:45 53° NNW 02:58:45 53° NNW visible
11 Apr 4.1 02:16:59 10° NNE 02:20:36 41° NE 02:20:36 41° NE visible
11 Apr 4.6 03:57:07 10° NNW 04:00:25 18° WNW 04:00:44 18° WNW visible
12 Apr 5.2 01:40:00 10° NE 01:42:27 20° ENE 01:42:27 20° ENE visible
12 Apr 3.7 03:18:16 10° N 03:22:35 38° WNW 03:22:35 38° WNW visible
13 Apr 3.3 02:40:11 10° NNE 02:44:26 63° NNE 02:44:26 63° NNE visible
13 Apr 5.0 04:22:29 10° NW 04:23:24 10° WNW 04:24:19 10° WNW visible
